Location: St. Louis
(38.6270°N, 90.1994°W)
Time: 00:50:27
(UTC-06:00)

Courier 1B Rocket - Pass Details

Date: 30 November 2021
Orbit: 920 x 1202 km, 28.2° (Epoch: 16 January)

Event Time Altitude Azimuth Distance (km) Brightness Sun altitude
Rises 21:49:19 0° 201° (SSW) 3,623 - -59.2°
Reaches altitude 10° 21:55:04 10° 161° (SSE) 2,626 - -60.3°
Maximum altitude 21:55:51 10° 154° (SSE) 2,604 - -60.4°
Drops below altitude 10° 21:56:38 10° 146° (SSE) 2,617 - -60.5°
Sets 22:02:15 0° 106° (ESE) 3,546 - -61.5°
